Temp
63 66 64 64 62 62 63 63 61 64 64 65 66 65 65 65 63 62 59 64 68 70 71 71 71 72 71 71 70 70 70 70 69 69 69 69 69 70 70 70 70 70 70
63 65 64 63 62 63 62 62 63 63 62 63 64 64 63 64 64 61 59 59 65 67 68 69 71 71 71 71 71 70 69 69 69 69 69 69 69 68 69 69 69 69 70
64 61 62 61 61 62 63 63 64 63 62 64 61 63 64 62 63 61 59 57 58 63 66 68 69 70 71 71 70 70 69 68 68 68 68 68 68 69 69 69 69 69 69
65 62 60 60 61 61 61 60 60 60 60 60 59 60 62 62 61 60 60 59 57 57 61 65 66 67 68 69 69 68 68 67 67 67 68 67 68 68 69 69 69 69 68
65 62 60 59 60 59 60 61 58 59 58 58 60 59 59 59 60 63 58 58 57 56 54 61 62 62 64 65 66 66 66 65 65 66 66 66 66 67 67 68 68 68 67
64 61 60 59 59 58 58 59 58 58 58 58 64 59 56 57 57 56 56 60 57 57 55 54 53 56 61 61 62 63 64 64 64 64 64 65 65 65 66 67 67 66 66
63 61 59 59 58 57 57 59 57 57 56 58 54 53 54 56 55 55 55 54 56 56 56 55 53 52 55 59 59 60 61 63 63 63 64 64 64 65 66 66 67 65 65
62 61 59 57 59 57 57 57 57 54 54 56 52 50 46 50 53 56 54 56 53 55 55 55 54 53 50 49 52 57 58 60 62 63 63 63 64 64 65 64 64 64 63
61 61 59 58 57 56 54 56 56 56 55 52 58 52 46 44 48 51 52 54 54 52 52 53 53 53 51 48 49 50 56 57 60 61 62 62 62 62 63 62 62 62 62
62 61 60 59 57 56 55 55 58 55 57 53 52 56 53 51 46 44 50 52 53 54 50 50 50 51 50 48 51 53 54 56 58 59 61 61 62 61 61 61 61 61 61
60 61 61 59 58 58 56 57 56 55 54 51 51 51 51 51 53 48 43 46 50 51 50 49 48 48 50 48 45 50 54 54 56 58 59 60 60 59 59 59 59 59 59
59 59 60 59 59 57 57 56 55 54 54 53 52 53 51 51 50 50 46 45 46 47 48 48 48 47 47 46 51 52 53 54 55 56 58 58 58 57 57 57 58 58 58
58 58 59 58 58 56 56 56 55 54 53 54 52 51 51 50 52 50 48 44 44 45 46 47 46 47 51 45 46 50 51 54 54 55 56 56 55 54 54 55 56 56 56
57 57 56 56 55 54 55 53 53 51 51 50 50 49 49 49 49 50 47 45 40 41 43 43 45 45 45 45 48 52 45 52 52 54 54 54 53 52 52 53 53 54 54
58 56 54 53 53 52 51 50 50 49 49 48 47 47 48 46 46 46 45 46 43 38 38 41 41 43 43 43 46 44 44 50 52 53 53 53 52 51 51 51 52 52 52
56 55 53 51 51 50 51 50 49 48 48 47 47 47 46 45 45 44 44 44 42 40 36 40 40 41 43 47 47 43 44 49 50 52 53 52 51 51 51 51 51 51 51
55 54 52 51 50 49 48 48 48 47 47 46 45 45 45 44 43 45 42 42 41 41 37 39 40 40 40 39 41 42 43 42 42 50 52 52 51 51 51 50 50 50 50
54 53 52 50 50 48 48 48 48 46 46 45 45 45 45 48 45 44 43 42 41 40 37 37 37 37 38 39 39 38 44 47 42 49 51 51 51 50 50 50 50 50 50
53 52 51 49 48 47 47 47 47 46 45 46 45 46 45 45 43 42 41 40 40 44 40 38 37 38 37 38 37 38 39 38 45 48 50 50 50 50 50 50 50 50 49
51 50 50 48 47 47 47 47 47 46 46 45 46 46 45 45 43 42 42 40 42 40 38 37 35 35 36 38 37 35 35 38 38 45 46 47 48 48 48 49 49 47 48
49 48 46 45 46 47 48 46 47 45 45 44 44 45 44 44 46 46 43 40 41 39 37 35 34 33 34 34 34 35 34 34 35 36 36 37 38 38 39 44 45 46 48
44 44 44 43 44 46 47 48 46 44 44 43 42 41 42 42 43 45 44 44 42 37 35 34 33 32 32 33 35 34 32 30 28 36 32 34 36 35 37 37 45 47 47
41 40 40 41 41 43 46 46 45 42 41 41 40 40 40 43 41 39 41 42 43 43 42 35 32 32 32 35 34 32 31 30 30 35 32 31 33 33 37 41 44 46 46
39 38 38 39 40 42 44 44 43 40 40 39 39 39 38 37 39 40 39 39 39 39 39 40 35 35 35 37 35 35 32 31 31 33 33 29 31 31 34 34 42 44 44
37 37 38 38 39 39 42 42 40 38 37 37 39 39 39 39 42 42 38 36 36 37 44 45 44 44 44 44 43 34 30 27 26 28 31 28 28 29 32 33 36 42 43
36 36 36 38 39 38 41 41 38 37 34 35 37 38 42 40 43 42 37 34 32 34 35 35 36 37 39 37 42 32 29 24 26 24 30 29 30 29 28 29 30 35 33
MSLP
1014.26 1014.80 1015.49 1015.90 1016.26 1016.54 1017.06 1017.53 1017.87 1017.87 1018.21 1018.47 1018.72 1019.16 1019.58 1020.26 1020.89 1021.53 1021.91 1021.91 1021.79 1021.79 1021.90 1022.04 1022.06 1021.98 1022.10 1022.14 1022.35 1022.41 1022.35 1022.38 1022.43 1022.31 1022.26 1022.12 1022.03 1021.88 1021.69 1021.48 1021.30 1021.09 1020.91
1014.04 1014.46 1015.05 1015.62 1016.03 1016.32 1016.70 1017.18 1017.49 1017.96 1018.39 1018.62 1019.05 1019.40 1019.88 1020.43 1021.07 1021.66 1022.15 1022.39 1022.36 1022.37 1022.49 1022.46 1022.36 1022.21 1022.28 1022.34 1022.48 1022.65 1022.65 1022.61 1022.60 1022.55 1022.48 1022.37 1022.10 1022.02 1021.76 1021.70 1021.54 1021.29 1021.07
1013.88 1014.36 1014.93 1015.46 1015.71 1016.04 1016.38 1016.82 1017.27 1017.86 1018.51 1018.78 1019.43 1019.66 1020.06 1020.66 1021.26 1021.81 1022.35 1022.71 1022.91 1022.99 1022.88 1022.77 1022.70 1022.66 1022.62 1022.65 1022.84 1022.84 1022.98 1022.89 1022.76 1022.65 1022.56 1022.43 1022.33 1022.20 1022.04 1021.90 1021.74 1021.56 1021.16
1013.73 1014.34 1015.04 1015.39 1015.54 1016.08 1016.44 1016.96 1017.44 1017.99 1018.66 1019.16 1019.54 1020.01 1020.34 1020.75 1021.31 1021.80 1022.29 1022.77 1023.12 1023.41 1023.34 1023.30 1023.32 1023.26 1023.18 1023.12 1023.13 1023.30 1023.34 1023.32 1023.25 1023.11 1022.92 1022.90 1022.69 1022.51 1022.19 1021.97 1021.72 1021.53 1021.40
1013.53 1014.28 1014.97 1015.34 1015.57 1016.11 1016.70 1017.08 1017.55 1017.97 1018.81 1019.52 1019.86 1020.27 1020.74 1021.21 1021.43 1021.87 1022.39 1022.79 1023.28 1023.64 1023.88 1023.82 1023.92 1024.02 1023.95 1023.88 1023.89 1023.94 1024.00 1023.94 1023.75 1023.60 1023.37 1023.26 1023.15 1023.01 1022.69 1022.34 1022.03 1021.81 1021.77
1013.35 1014.21 1014.88 1015.42 1015.78 1016.39 1016.92 1017.31 1017.83 1018.17 1018.85 1019.56 1020.12 1020.76 1021.19 1021.52 1021.87 1022.39 1022.83 1023.05 1023.34 1023.72 1024.06 1024.24 1024.34 1024.41 1024.49 1024.63 1024.63 1024.54 1024.37 1024.29 1024.05 1023.99 1023.88 1023.74 1023.46 1023.20 1022.86 1022.45 1022.03 1022.06 1021.79
1013.26 1014.02 1014.75 1015.44 1016.01 1016.63 1016.96 1017.40 1018.04 1018.38 1018.92 1019.66 1020.68 1021.51 1021.85 1022.06 1022.40 1022.83 1023.11 1023.55 1023.66 1023.82 1024.00 1024.18 1024.49 1024.73 1024.85 1024.93 1025.03 1025.10 1024.97 1024.73 1024.44 1024.18 1024.01 1023.80 1023.61 1023.23 1022.92 1022.53 1022.22 1022.27 1022.12
1013.27 1013.81 1014.56 1015.29 1015.93 1016.52 1016.96 1017.27 1017.76 1018.60 1019.13 1019.42 1020.93 1021.78 1022.66 1022.87 1022.85 1023.02 1023.23 1023.52 1023.88 1023.97 1024.20 1024.41 1024.57 1024.80 1025.10 1025.28 1025.35 1025.44 1025.28 1024.99 1024.68 1024.41 1024.12 1023.82 1023.57 1023.34 1023.16 1023.04 1022.85 1022.62 1022.40
1013.14 1013.66 1014.30 1015.09 1015.72 1016.29 1016.89 1017.22 1017.68 1018.28 1019.30 1019.62 1020.14 1020.79 1022.05 1022.52 1022.94 1023.32 1023.39 1023.61 1023.92 1024.25 1024.45 1024.65 1024.90 1025.05 1025.23 1025.43 1025.59 1025.79 1025.59 1025.31 1024.93 1024.63 1024.38 1024.07 1023.80 1023.58 1023.42 1023.37 1023.19 1022.91 1022.54
1012.99 1013.51 1014.05 1014.71 1015.50 1015.97 1016.54 1016.99 1017.52 1017.96 1018.79 1019.59 1020.13 1020.22 1020.41 1020.82 1022.22 1023.53 1023.64 1023.62 1023.88 1024.30 1024.68 1024.88 1025.04 1025.20 1025.36 1025.49 1025.49 1025.71 1025.85 1025.67 1025.30 1024.90 1024.62 1024.38 1024.09 1023.93 1023.73 1023.53 1023.31 1023.01 1022.68
1012.74 1013.23 1013.74 1014.31 1015.05 1015.64 1016.11 1016.54 1017.16 1017.84 1018.51 1019.22 1019.63 1020.24 1020.53 1020.75 1020.93 1022.04 1023.39 1023.76 1024.01 1024.34 1024.68 1025.09 1025.38 1025.49 1025.43 1025.51 1025.73 1025.71 1025.73 1025.70 1025.52 1025.15 1024.71 1024.58 1024.53 1024.37 1024.05 1023.72 1023.45 1023.13 1022.84
1012.66 1012.89 1013.54 1014.11 1014.41 1015.19 1015.76 1016.17 1016.72 1017.42 1018.01 1018.76 1019.11 1019.62 1020.13 1020.54 1020.71 1021.18 1022.43 1023.36 1024.05 1024.66 1024.67 1024.95 1025.23 1025.42 1025.59 1025.67 1025.66 1025.74 1025.75 1025.63 1025.67 1025.47 1024.91 1024.60 1024.73 1024.70 1024.38 1024.02 1023.74 1023.58 1023.43
1012.40 1012.72 1013.30 1013.96 1014.33 1014.74 1015.24 1015.75 1016.35 1017.05 1017.78 1018.45 1018.93 1019.56 1019.74 1020.03 1020.09 1020.65 1021.61 1023.06 1023.93 1024.56 1024.84 1025.14 1025.21 1025.26 1025.43 1025.68 1025.74 1025.76 1025.69 1025.59 1025.49 1025.39 1025.20 1024.81 1024.74 1024.66 1024.48 1024.20 1023.90 1023.61 1023.59
1011.77 1012.99 1013.47 1013.95 1014.36 1014.71 1015.24 1015.73 1016.43 1016.96 1017.57 1018.37 1019.00 1019.54 1019.90 1020.11 1020.27 1020.68 1021.50 1022.50 1024.09 1024.48 1024.69 1025.25 1025.25 1025.14 1025.44 1025.59 1025.57 1025.55 1025.59 1025.56 1025.60 1025.26 1025.12 1024.94 1024.71 1024.67 1024.42 1024.11 1023.88 1023.71 1023.48
1011.87 1012.89 1013.74 1014.07 1014.49 1014.86 1015.31 1016.04 1016.89 1017.40 1017.84 1018.60 1019.23 1019.73 1020.28 1020.60 1020.85 1021.18 1021.48 1022.14 1023.23 1024.72 1025.05 1025.37 1025.51 1025.43 1025.39 1025.65 1025.55 1025.58 1025.48 1025.48 1025.28 1025.09 1025.03 1024.86 1024.71 1024.64 1024.41 1024.10 1023.68 1023.33 1023.35
1012.28 1012.88 1013.61 1014.06 1014.69 1015.26 1015.72 1016.25 1017.21 1017.91 1018.22 1018.95 1019.50 1020.02 1020.67 1021.09 1021.29 1021.77 1022.09 1022.53 1023.13 1023.93 1025.07 1025.14 1025.40 1025.63 1025.41 1025.39 1025.46 1025.52 1025.53 1025.45 1025.07 1024.84 1024.76 1024.72 1024.63 1024.61 1024.31 1024.09 1023.79 1023.57 1023.45
1011.89 1012.31 1013.06 1013.73 1014.45 1015.24 1016.10 1016.65 1017.41 1018.12 1018.65 1019.25 1019.89 1020.35 1020.98 1021.18 1021.86 1022.08 1022.43 1023.03 1023.45 1024.00 1024.83 1025.23 1025.38 1025.73 1025.43 1025.54 1025.50 1025.49 1025.43 1025.49 1025.16 1024.84 1024.62 1024.33 1024.26 1024.13 1023.92 1023.76 1023.61 1023.32 1023.10
1011.21 1011.97 1012.77 1013.31 1014.24 1015.23 1016.12 1016.68 1017.50 1018.16 1018.66 1019.56 1020.16 1020.68 1021.21 1021.40 1022.13 1022.25 1022.60 1023.43 1023.78 1024.04 1024.59 1025.30 1025.53 1025.46 1025.51 1025.32 1025.43 1025.39 1025.27 1025.10 1025.04 1024.72 1024.49 1024.09 1023.81 1023.60 1023.43 1023.26 1022.87 1022.38 1022.30
1011.02 1011.66 1012.29 1013.34 1014.25 1014.47 1015.79 1017.07 1017.43 1018.12 1019.00 1019.73 1020.22 1020.94 1021.42 1021.80 1022.28 1022.52 1022.86 1023.45 1023.78 1024.13 1024.63 1024.99 1025.27 1025.30 1025.33 1025.26 1025.19 1025.15 1025.09 1025.14 1024.72 1024.53 1024.25 1024.03 1023.75 1023.62 1023.52 1023.23 1023.09 1022.79 1022.48
1010.34 1011.25 1012.19 1013.13 1014.35 1014.93 1015.85 1016.62 1017.62 1018.09 1018.98 1020.25 1020.76 1021.03 1021.57 1022.13 1022.31 1022.48 1022.91 1023.27 1023.61 1024.33 1024.56 1024.48 1024.91 1025.17 1025.41 1025.31 1025.06 1025.27 1025.25 1024.99 1024.67 1024.41 1024.12 1024.03 1023.75 1023.53 1023.23 1022.54 1022.34 1022.11 1022.02
1010.15 1011.14 1012.10 1013.43 1014.62 1015.13 1015.84 1016.40 1017.18 1018.37 1018.98 1020.01 1020.80 1021.32 1021.82 1021.89 1022.30 1022.66 1022.98 1023.32 1023.71 1024.32 1024.39 1024.69 1025.07 1025.22 1025.51 1025.33 1025.10 1024.98 1025.00 1025.01 1024.78 1024.66 1024.27 1024.07 1023.85 1023.83 1023.37 1022.82 1022.26 1021.88 1021.57
1011.35 1011.76 1012.76 1013.22 1014.30 1015.26 1015.83 1016.33 1017.17 1018.11 1019.10 1020.06 1021.07 1021.51 1021.91 1022.53 1022.90 1022.94 1023.20 1023.45 1023.78 1024.06 1024.53 1024.83 1025.14 1025.36 1025.16 1025.11 1024.93 1024.98 1025.25 1025.05 1024.94 1024.23 1024.43 1024.16 1023.62 1023.18 1022.58 1022.31 1022.04 1021.54 1021.05
1011.03 1012.19 1013.14 1013.88 1014.43 1015.54 1016.03 1016.83 1017.68 1018.55 1019.17 1020.60 1021.25 1021.90 1022.44 1022.83 1023.07 1023.44 1023.59 1023.72 1023.80 1024.02 1024.29 1024.43 1024.84 1024.98 1025.06 1025.09 1025.54 1025.28 1025.10 1025.03 1024.91 1024.09 1023.90 1023.76 1023.41 1022.73 1022.05 1021.51 1021.42 1020.98 1020.67
1011.02 1011.93 1012.87 1014.26 1015.07 1015.87 1016.48 1017.47 1017.74 1019.03 1020.29 1020.78 1021.57 1022.32 1022.60 1023.00 1023.22 1023.46 1023.74 1023.86 1023.77 1023.87 1023.98 1023.85 1024.50 1024.68 1024.87 1024.89 1024.90 1024.89 1024.62 1024.68 1024.48 1023.86 1023.53 1023.60 1022.90 1022.30 1021.82 1021.58 1021.09 1020.61 1020.30
1011.22 1012.31 1012.94 1014.09 1015.01 1016.24 1016.85 1017.55 1018.45 1019.46 1020.65 1021.71 1022.26 1022.33 1022.33 1022.28 1022.89 1023.32 1023.71 1023.69 1023.79 1023.69 1023.61 1023.58 1023.94 1024.03 1024.24 1024.14 1024.01 1024.41 1024.72 1024.96 1024.68 1024.30 1023.82 1023.29 1022.84 1022.68 1022.26 1021.42 1020.67 1020.37 1019.95
1010.96 1012.07 1013.33 1014.38 1015.15 1016.39 1017.09 1017.95 1019.07 1020.19 1021.27 1021.85 1022.19 1022.28 1021.85 1022.06 1022.94 1023.32 1023.55 1023.44 1023.65 1023.75 1023.83 1023.99 1024.30 1024.24 1024.19 1024.13 1023.97 1024.56 1025.02 1025.22 1025.17 1024.70 1023.80 1023.79 1023.37 1023.13 1021.95 1021.02 1020.70 1020.25 1019.80
Wind_Speed
5 8 6 6 5 5 6 6 5 5 6 6 6 6 7 10 9 6 4 14 12 13 13 14 11 13 13 14 14 13 12 13 12 12 12 12 12 12 13 12 11 11 12
5 7 7 6 5 6 6 5 5 5 5 6 6 7 7 8 10 8 5 7 15 14 13 11 11 12 13 14 14 14 13 12 12 12 11 11 11 11 10 11 11 12 13
6 6 5 5 5 5 7 6 5 4 5 5 7 6 6 7 9 10 6 4 7 12 11 12 12 13 12 12 13 13 12 14 14 12 13 12 12 14 14 15 16 17 17
7 6 5 5 5 4 5 5 5 5 5 5 5 5 5 6 7 7 6 5 5 5 9 14 14 14 14 13 13 13 14 14 15 14 13 14 14 14 13 13 13 14 18
7 6 5 4 6 5 4 5 4 6 5 5 6 5 5 5 6 6 7 7 7 6 4 13 15 15 14 15 14 14 14 14 13 14 14 14 15 15 15 14 14 15 17
8 6 5 6 5 5 5 4 5 4 5 5 7 6 5 5 5 5 6 5 5 6 5 5 4 6 14 14 14 14 13 13 13 13 14 14 14 14 14 15 14 15 17
8 7 5 7 5 5 6 7 4 6 4 6 5 5 4 5 6 5 5 4 5 5 5 5 4 3 5 13 14 15 15 14 14 13 13 14 14 13 14 14 16 14 16
7 7 7 7 7 5 6 6 6 4 3 6 5 5 3 3 2 3 4 5 5 4 5 5 6 6 5 4 8 14 14 14 14 13 13 13 13 14 15 17 18 18 17
7 8 8 6 7 5 5 6 6 8 8 3 12 5 4 4 4 0 3 3 5 3 4 5 6 5 6 5 7 8 12 12 12 13 13 13 13 14 15 15 16 16 16
8 8 10 8 7 6 7 6 5 5 9 7 2 1 2 6 4 2 1 3 5 5 5 3 5 5 5 4 7 9 10 11 12 13 14 14 14 14 15 16 16 17 17
8 8 9 9 9 7 7 8 7 7 5 4 4 3 2 2 3 4 4 3 2 3 4 4 4 4 4 3 4 5 8 9 12 13 13 14 15 15 15 16 16 17 18
8 9 10 10 9 8 10 8 7 8 7 5 4 4 4 4 3 4 4 4 5 2 3 4 4 4 3 4 5 6 9 7 10 13 14 14 14 16 16 17 17 19 19
8 10 11 11 9 9 10 9 9 7 7 8 6 4 4 3 3 3 5 3 4 2 2 2 4 4 4 3 2 4 8 10 9 12 15 14 15 16 17 18 18 18 19
9 7 6 7 7 7 8 7 6 5 7 7 9 6 6 4 5 3 5 6 3 1 2 3 1 4 3 2 3 4 4 11 8 13 13 13 13 15 16 16 16 17 17
7 8 6 7 7 8 8 8 6 7 9 7 8 8 7 5 5 5 5 4 5 4 2 2 2 3 3 3 4 3 4 8 11 12 12 12 12 14 16 16 15 14 16
11 11 9 8 8 7 9 9 8 7 11 7 7 10 8 5 6 5 5 4 4 4 3 2 1 1 2 2 3 5 5 8 9 12 12 13 13 15 15 15 15 15 16
13 13 13 13 12 11 9 9 10 10 11 9 7 9 9 7 5 5 5 4 4 3 3 1 2 1 2 1 3 3 4 4 4 11 13 13 14 15 16 15 14 15 16
13 14 13 14 13 11 10 12 12 9 12 11 9 10 9 7 7 6 4 5 4 4 4 3 2 1 1 1 3 2 2 3 4 9 14 14 14 14 15 15 16 17 16
13 14 15 14 14 15 14 9 12 10 9 9 8 8 7 8 6 5 5 5 4 2 3 3 2 1 2 0 1 3 3 3 2 8 13 15 15 15 16 18 19 19 17
16 15 13 14 13 13 12 14 12 12 11 7 6 7 7 7 7 6 5 5 4 3 2 2 1 1 1 3 1 2 3 2 3 4 9 10 13 15 18 20 19 18 18
13 14 16 14 13 13 11 14 14 12 12 10 8 7 5 8 10 5 4 3 4 2 1 1 0 1 2 2 2 1 2 2 4 3 3 3 3 5 6 12 13 17 18
12 13 14 17 16 10 22 22 16 12 12 10 8 7 6 7 6 7 6 5 4 3 1 1 1 1 2 2 2 2 2 2 3 4 2 5 3 5 5 4 15 22 20
16 16 13 14 15 14 23 22 20 10 11 8 7 6 4 4 5 3 4 5 4 4 5 3 2 2 3 2 3 4 3 2 4 6 2 5 3 5 5 6 17 21 22
17 16 17 16 15 14 24 22 21 11 8 8 7 6 5 5 6 5 2 2 2 2 3 2 4 3 3 5 4 4 4 4 4 4 1 5 3 5 4 5 19 22 21
16 15 16 18 18 16 23 22 16 9 8 6 5 5 6 7 9 7 3 3 2 2 4 6 7 9 9 11 9 1 3 3 3 3 3 2 3 5 8 9 8 14 15
16 15 16 15 21 15 19 19 13 8 7 6 6 5 11 7 10 7 4 1 1 2 2 3 4 3 5 6 6 6 3 2 3 3 3 5 6 5 5 4 2 7 6
Wind_Direction
144 148 161 153 164 153 154 174 185 139 141 133 108 115 99 115 99 91 68 56 56 82 75 70 63 73 76 70 65 63 59 58 51 51 44 40 35 28 25 22 15 10 4
158 162 154 158 168 151 160 169 148 143 137 117 113 107 99 106 117 108 90 66 64 69 72 76 74 72 79 72 71 62 57 59 55 46 42 35 30 15 18 14 9 4 354
154 140 141 143 157 151 150 138 137 122 115 116 111 103 102 100 112 119 118 109 81 68 75 76 74 67 63 69 63 58 48 45 45 45 34 32 25 14 16 11 11 5 5
143 135 138 142 147 138 138 136 134 120 121 120 121 110 104 109 113 125 130 123 114 90 74 79 72 68 61 56 59 56 45 31 31 26 25 19 16 10 4 4 5 357 360
143 134 138 142 131 118 113 124 115 122 127 122 113 100 97 100 109 98 92 87 109 114 107 96 85 73 67 60 52 44 36 30 25 20 17 12 8 0 356 352 349 1 356
146 137 134 130 122 124 126 119 136 132 129 131 113 97 94 88 96 102 107 102 97 107 128 117 92 92 78 63 52 45 38 30 26 19 12 6 3 358 351 348 350 1 351
146 141 135 136 144 147 157 155 146 138 118 113 100 77 63 86 96 109 113 110 104 107 103 84 105 103 73 71 57 41 31 22 18 15 10 5 359 356 351 353 350 2 349
150 143 141 146 148 141 149 148 138 116 103 125 129 101 98 12 47 128 122 129 136 124 101 88 81 77 84 80 63 41 30 21 14 11 9 6 2 360 357 359 355 353 349
155 147 143 145 149 138 154 154 147 132 149 136 157 149 145 179 130 162 137 147 145 123 116 106 93 86 92 86 72 42 29 19 14 10 6 3 4 1 359 356 351 347 347
163 157 152 154 158 148 154 154 152 139 152 163 114 94 88 133 162 139 225 171 135 127 141 129 122 107 93 89 95 53 24 10 7 6 1 357 359 358 355 354 348 345 343
163 158 160 158 157 155 157 155 151 152 143 142 135 141 90 65 133 137 159 179 92 131 110 122 114 112 103 102 102 53 21 3 1 360 357 354 357 355 352 349 346 343 344
173 165 166 164 160 155 161 158 149 154 154 149 143 144 158 167 181 144 125 147 148 186 132 135 130 132 105 66 86 46 9 354 351 349 350 352 356 352 350 347 345 346 343
179 179 168 166 168 158 153 149 148 151 155 159 150 147 124 105 118 121 107 127 134 147 141 161 151 136 106 76 74 37 351 341 329 339 341 347 351 350 347 345 345 344 343
162 158 155 155 145 139 140 132 136 128 124 124 124 108 104 85 76 87 129 131 90 95 101 168 209 115 98 80 24 10 4 337 338 329 330 336 341 341 340 339 337 337 338
142 141 145 138 131 127 124 119 122 118 115 114 112 107 105 96 83 84 86 112 138 152 160 254 125 75 82 53 349 25 333 315 328 324 315 323 333 333 332 331 330 330 333
148 149 140 124 115 106 118 119 121 120 118 116 119 117 112 109 99 88 90 85 81 118 139 156 52 156 86 40 355 9 332 326 307 316 323 327 328 328 327 329 331 326 326
160 151 144 139 134 132 129 126 127 129 124 124 115 123 121 121 114 108 99 97 97 100 122 347 90 28 29 68 350 331 310 315 318 323 315 321 323 327 331 331 325 320 323
154 150 147 140 133 130 133 135 138 134 132 130 127 128 129 124 124 120 105 115 115 116 127 178 229 298 335 246 237 289 289 290 293 296 317 316 327 324 323 322 321 320 326
153 147 144 143 146 141 135 130 127 121 117 125 127 128 118 120 121 123 126 133 129 113 139 165 252 227 242 279 316 282 260 274 283 312 329 323 318 322 311 323 321 325 324
150 146 142 139 140 135 133 133 127 123 117 106 103 114 131 144 138 130 132 139 130 146 171 146 221 331 327 283 255 265 310 300 315 315 310 312 329 313 317 315 318 317 309
146 139 134 129 137 135 137 131 127 123 116 111 109 110 100 91 91 113 130 134 143 153 93 64 26 221 266 310 330 296 311 308 294 273 276 298 293 290 299 305 303 306 308
138 141 141 140 140 138 131 126 124 121 118 114 116 97 90 100 126 124 118 108 107 123 159 176 222 261 282 299 317 288 284 311 305 284 336 298 269 281 279 277 292 310 311
141 139 134 135 129 128 126 125 121 118 107 118 112 108 121 131 113 115 165 186 196 211 203 180 228 249 298 315 328 318 307 273 272 284 265 281 251 278 284 294 304 304 303
147 143 137 136 128 133 133 129 110 97 105 95 101 143 148 165 185 164 170 195 185 209 244 206 188 248 267 273 261 251 253 269 280 283 342 291 305 296 306 304 300 299 300
144 137 135 135 132 132 129 122 116 104 101 133 162 171 180 154 161 169 187 199 253 273 277 213 234 253 280 307 307 307 311 305 299 292 276 292 339 320 304 288 279 297 317
133 131 130 130 127 129 131 127 123 135 152 171 185 195 171 151 169 181 191 208 241 288 31 359 331 326 325 299 356 65 51 34 331 306 336 354 318 333 307 264 288 302 283